Volver al catálogo

PSLV R/B

ActivoHEO
NORAD 62257·ROCKET BODY·🇮🇳 India

Lanzado Dec 5, 2024 desde Satish Dhawan Space Centre

Loading…

Próximos Pases (próximas 24 horas)

TLE

ActualizadoSource: Space-Track

Época: Sep 12, 2026, 12:49 UTC

1 62257U 24233B   26255.53453690 -.00000114  00000-0  00000-0 0  9998
2 62257  59.9115  91.3302 8010889 207.3931  63.9788  1.20455651  7783

Sigue PSLV R/B en tiempo real con AllMySat

Download on the App Store